Location: Laniac
(45.0955°N, 3.6208°E)
Time: 08:34:29
(UTC+00:00)

Daily predictions for brighter satellites

Satellite Brightness Start Highest point End
(mag) Time Altitude Azimuth Time Altitude Azimuth Time Altitude Azimuth
USA 267 3.4 16:26:04 10° ESE 16:32:29 60° NNE 16:38:53 10° NW
CZ-4B R/B 3.4 16:28:24 10° SSE 16:33:44 81° WSW 16:39:12 10° NNW
Feng Yun 1-1 Rocket 4.4 16:34:08 10° SE 16:39:17 48° ENE 16:44:28 10° N
Cosmos 1992 Rocket 4.0 16:34:15 10° NNW 16:39:29 69° ENE 16:44:42 10° SSE
Nadezhda 4 Rocket 4.1 16:36:03 10° S 16:42:13 58° E 16:48:23 10° NNE
Cosmos 1536 3.1 16:39:24 10° N 16:43:16 44° ENE 16:47:05 10° SSE
Cosmos 2278 Rocket 2.3 16:37:51 10° NNW 16:43:34 87° WSW 16:49:13 10° SSE
Cosmos 2360 Rocket 4.2 16:40:06 10° W 16:44:23 21° NW 16:48:41 10° N
Cosmos 1733 Rocket 3.1 16:42:29 10° N 16:46:54 90° ESE 16:51:19 10° S
Lacrosse 5 rocket 2.3 16:47:29 10° WSW 16:51:33 39° NNW 16:55:25 10° NE
AQUARIUS 4.3 16:48:56 10° SSE 16:53:18 53° ENE 16:57:41 10° N
SMAP 3.1 16:49:25 10° SSE 16:53:58 60° ENE 16:58:35 10° N
Cosmos 2369 Rocket 3.7 16:51:01 10° N 16:54:19 16° NE 16:57:15 11° ENE
YAOGAN 6 4.0 16:53:23 10° ESE 16:55:47 17° ENE 16:58:13 10° NNE
SL-4 R/B 2.9 16:54:49 10° WNW 16:58:12 32° N 17:01:17 13° NE
SL-16 R/B 2.9 16:54:20 10° SSE 16:59:24 35° ESE 17:04:31 10° NE
IRS-1C Rocket 4.1 16:54:32 10° SSE 16:59:47 77° ENE 17:05:04 10° NNW
Cosmos 921 Rocket 3.7 16:56:10 10° N 17:00:01 31° ENE 17:03:55 10° SE
Cosmos 1743 4.0 16:57:11 10° NNE 17:00:06 20° ENE 17:03:01 10° ESE
Aureole 1 Rocket 2.5 17:00:35 10° S 17:03:25 43° ESE 17:06:13 12° NE
FALCON 9 DEB 3.1 17:00:23 10° SW 17:03:53 85° SE 17:06:35 16° ENE
Cosmos 2026 Rocket 4.4 16:58:28 10° SSE 17:03:57 38° E 17:09:28 10° NNE
ALOS 4.4 17:00:56 10° SSW 17:05:02 31° W 17:09:11 10° NNW
Cosmos 1867 4.3 17:01:15 10° NNW 17:06:10 33° NE 17:11:04 10° ESE
NOSS 0 Rocket 4.3 17:00:48 10° SW 17:06:59 70° WNW 17:13:15 10° NNE
CORIOLIS 4.1 17:02:32 10° SSE 17:07:56 70° ENE 17:13:23 10° N
Cosmos 2237 Rocket 2.3 17:02:36 10° SSW 17:08:18 80° WNW 17:14:01 10° NNE
Cosmos 1812 3.5 17:07:51 10° SSW 17:11:38 53° W 17:15:27 10° N
Cosmos 2333 Rocket 3.7 17:06:56 10° WSW 17:12:04 33° NW 17:17:16 10° N
CZ-4 R/B 2.4 17:09:16 10° ESE 17:12:18 22° ENE 17:15:20 10° NNE
ATLAS 5 CENTAUR R/B 0.4 17:10:19 10° SW 17:12:44 90° S 17:13:53 22° NE
ATLAS 2AS CENTAUR R/B 4.4 17:10:38 10° W 17:17:25 29° NNW 17:24:06 10° NNE
Cosmos 2219 Rocket 3.8 17:13:23 10° WSW 17:18:16 30° NW 17:23:12 10° N
Cosmos 1782 Rocket 3.8 17:15:56 10° N 17:20:07 44° ENE 17:24:16 10° SSE
Cosmos 292 Rocket 3.8 17:15:48 10° NNW 17:20:42 89° WSW 17:25:32 10° SSE
SKYMED 2 4.3 17:17:34 14° NE 17:20:49 32° E 17:24:43 10° SSE
Cosmos 1943 Rocket 3.1 17:20:20 10° N 17:25:06 27° NE 17:27:53 18° E
Abrixas rocket 4.2 17:24:15 10° S 17:25:48 13° SE 17:26:12 13° SE
ISS -0.7 17:26:03 10° W 17:28:13 16° SW 17:30:22 10° S
Okean 2 Rocket 4.0 17:25:00 10° NNE 17:28:47 26° ENE 17:32:34 10° SE
Cosmos 1703 Rocket 3.5 17:26:20 10° S 17:30:48 75° E 17:35:17 10° NNE
Sich 1 Rocket 3.8 17:26:38 10° N 17:30:51 44° ENE 17:35:02 10° SSE
STARLINK-52 3.2 17:28:48 10° WSW 17:32:18 73° NNW 17:33:53 30° NE
Cosmos 1190 Rocket 4.2 17:27:27 10° S 17:32:25 49° ESE 17:36:02 18° NE
Cosmos 1975 3.4 17:32:08 10° N 17:35:46 32° ENE 17:39:22 10° SE
Cosmos 1627 Rocket 4.4 17:31:02 10° S 17:37:06 73° E 17:43:14 10° NNE
CSL-04 Rocket 4.0 17:32:23 10° SE 17:37:15 39° ENE 17:42:10 10° N
STARLINK-60 3.9 17:37:12 10° W 17:40:25 41° NNW 17:41:33 30° NNE
STARLINK-29 3.5 17:36:59 10° WSW 17:40:28 58° NNW 17:41:45 34° NE
Shenzhou-11 Module 4.0 17:38:45 10° WSW 17:40:56 21° SSW 17:42:36 13° SSE
Lacrosse 5 3.5 17:38:02 10° SSE 17:41:08 16° ESE 17:41:13 16° ESE
Cosmos 2195 Rocket 4.4 17:35:00 10° S 17:41:13 85° E 17:47:34 10° N
USA 215 3.7 17:36:17 17° NE 17:41:16 55° NNW 17:47:35 10° WSW
STARLINK-43 3.9 17:40:09 10° SSW 17:43:38 40° SE 17:44:24 35° ESE
H-2A R/B 4.2 17:40:14 10° SSW 17:43:42 38° W 17:47:11 10° NNW
Cosmos 1441 Rocket 3.3 17:41:01 10° NNW 17:44:50 77° W 17:48:34 10° S
Cosmos 1655 Rocket 4.3 17:41:55 10° SSE 17:47:44 41° E 17:53:06 12° NNE
Cosmos 614 Rocket 3.8 17:43:01 10° SSW 17:48:06 81° ESE 17:51:50 19° NNE
Cosmos 2297 3.7 17:44:12 10° NNW 17:49:56 83° WSW 17:55:35 10° SSE
Cosmos 1092 Rocket 4.3 17:45:50 10° SSW 17:52:05 68° W 17:58:20 10° N
Cosmos 1174 4.2 17:50:17 10° SW 17:55:18 73° WNW 17:57:14 31° NNE
CSL-04 Debris 4.2 17:50:58 10° SSE 17:56:17 58° ENE 18:01:37 10° N
Genesis I 4.3 17:55:21 10° NW 17:59:03 43° WSW 18:02:41 10° SSE
Okean-O 3.6 17:58:41 10° S 18:02:58 49° W 18:07:17 10° NNW
Envisat 3.8 18:03:23 10° S 18:08:20 53° W 18:13:20 10° NNW
BREEZE-M R/B 2.9 18:04:19 10° WNW 18:08:34 51° N 18:08:34 51° N
COSMO-SKYMED 1 2.6 18:06:07 22° N 18:08:57 79° WNW 18:13:17 10° SSW
Okean 1-7 3.9 18:05:12 10° SSW 18:09:25 50° WNW 18:13:42 10° N
Cosmos 1140 Rocket 3.3 18:04:50 10° SSW 18:09:57 83° ESE 18:12:14 34° NNE
Meteor 2-13 Rocket 4.4 18:04:17 10° S 18:10:12 58° E 18:14:11 21° NNE
YAOGAN 1 2.4 18:09:12 10° SSE 18:13:32 83° ENE 18:17:53 10° NNW
USA 267 4.1 18:09:17 10° SSE 18:15:35 49° SW 18:21:54 10° WNW
Meteor 1-18 Rocket 4.3 18:12:01 10° SSW 18:17:43 78° W 18:23:06 11° N
Meteor 2-9 Rocket 4.1 18:11:54 10° N 18:17:47 78° ENE 18:23:33 10° SSE
NOSS 3-1 (C) 4.2 18:11:28 10° NNW 18:18:35 49° NE 18:20:52 40° E
Cosmos 407 Rocket 4.0 18:13:43 10° SW 18:18:51 59° WNW 18:22:12 22° N
Cosmos 1023 Rocket 4.4 18:14:39 10° SSW 18:19:45 80° WNW 18:21:54 36° NNE
NOAA 11 4.0 18:15:41 10° SSE 18:21:06 73° ENE 18:26:36 10° N
IRIDIUM 106 4.5 18:16:47 10° SSE 18:21:05 51° ESE 18:21:05 51° ESE
S3M 3.8 18:19:49 10° N 18:26:05 81° E 18:32:12 10° S
Cosmos 1943 4.2 18:21:02 10° S 18:24:15 29° SE 18:24:15 29° SE
BREEZE-M DEB (TANK) 3.7 18:24:51 10° WNW 18:27:34 26° SW 18:27:34 26° SW
USA 229 DEB 3.9 18:21:21 10° NNW 18:28:25 54° NE 18:29:44 48° ENE
USA 229 3.9 18:21:28 10° NNW 18:28:30 54° NE 18:29:46 49° ENE
YAOGAN 6 4.3 18:25:49 10° SSW 18:29:02 33° W 18:32:20 10° NNW
CZ-4C R/B 3.2 18:25:24 10° S 18:28:04 28° SSE 18:28:04 28° SSE
Uosat 12 SS-18 rocket 4.5 18:26:02 10° NNW 18:29:54 54° NNW 18:29:54 54° NNW
Lacrosse 5 rocket 3.5 18:28:56 10° NW 18:31:14 16° NNW 18:31:14 16° NNW
Cosmos 2266 Rocket 4.0 18:26:46 10° S 18:33:03 62° E 18:33:58 56° NE
NOSS 3-1 (A) 4.3 18:26:48 10° NNW 18:33:46 44° NE 18:34:15 43° NE
Cosmos 1553 Rocket 4.4 18:31:33 10° NNW 18:37:51 65° W 18:44:12 10° S
SL-4 R/B 3.6 18:34:48 10° NW 18:36:53 26° NNW 18:36:53 26° NNW
Cosmos 2369 Rocket 2.0 18:33:42 10° NNW 18:39:08 74° NE 18:39:08 74° NE
SL-16 R/B 3.3 18:38:07 10° SW 18:43:26 40° NW 18:46:25 23° N
CZ-4 R/B 3.2 18:43:46 10° SSW 18:47:12 30° W 18:50:38 10° NW
Cosmos 1867 4.4 18:44:43 10° NW 18:49:58 49° WSW 18:52:47 26° S
Cosmos 1603 3.8 18:44:30 10° SSW 18:49:20 63° S 18:49:20 63° S
CZ-3B R/B 4.3 18:54:56 10° S 18:56:53 13° SSE 18:56:53 13° SSE
Gbstr 26 Del rocket 4.4 18:51:59 10° SW 18:57:35 47° S 18:57:35 47° S
Meteor 2-4 Rocket 4.1 19:00:35 10° SSW 19:06:24 64° WNW 19:06:55 61° NW
Cosmos 1943 Rocket 2.7 19:03:41 10° NNW 19:09:11 55° WSW 19:09:30 54° WSW
Cosmos 2344 4.3 19:09:47 10° NW 19:19:31 79° NE 19:22:30 58° ESE
Lacrosse 5 3.7 19:18:21 10° SW 19:20:28 25° SW 19:20:28 25° SW
USA 215 4.3 19:23:38 33° N 19:23:38 33° N 19:29:09 10° WNW
